[[{"header":{"parameterUnit":"m.s-1","parameterCategory":1,"la1":30.2991,"la2":30.254,"lo1":-89.0895,"lo2":-89.0444,"dy":0.0017,"dx":0.0017,"nx":28,"ny":28,"refTime":"2025-03-28T21:00:00:Z","depth":0,"parameterNumber":2,"parameterNumberName":"U-component_of_WINDS"},"data":[0,0,0,0,0,0,0,0,0,0,0,0,0,0,0,0,0,0,0,0,0,0,0,0,0,0,0,0,0,0,0,0,0,0,0,0,0,0,0,0,0,0,0,0,0,0,0,0,0,0,0,0,0,0,0,0,0,0,-5.8562,-5.8563,0,-5.8615,-5.8615,-5.8616,-5.8566,-5.8564,-5.8562,-5.856,-5.8611,-5.8614,-5.8617,0,0,0,0,0,0,0,0,0,0,0,0,0,-5.8416,-5.8419,-5.8562,-5.8563,-5.8563,-5.8615,-5.8615,-5.8616,-5.8567,-5.8564,-5.8562,-5.856,-5.861,-5.8614,-5.8618,0,0,0,0,0,0,0,0,0,0,0,0,0,-5.8475,-5.842,-5.8562,-5.8545,-5.8544,-5.8614,-5.8615,-5.8616,-5.8567,-5.8564,-5.8561,-5.8558,-5.8609,-5.8613,-5.8618,-5.8707,0,0,-5.8633,-5.8635,0,0,0,0,0,0,0,0,-5.8472,-5.8481,-5.8547,-5.8546,-5.8545,-5.8581,-5.8582,-5.8647,-5.8568,-5.8558,-5.856,-5.8557,-5.8603,-5.8608,-5.8625,-5.8709,-5.8712,-5.8633,-5.8636,-5.8638,-5.8639,0,0,0,0,0,0,0,-5.8468,-5.8478,-5.8583,-5.8548,-5.8547,-5.8534,-5.8539,-5.8594,-5.8597,-5.8559,-5.8555,-5.8562,-5.8602,-5.862,-5.8625,-5.8712,-5.8633,-5.8637,-5.864,-5.8642,-5.8872,-5.8876,0,0,0,0,0,0,-5.8466,-5.8475,-5.8581,-5.8584,-5.8501,-5.8539,-5.8545,-5.8572,-5.8596,-5.8597,-5.8565,-5.856,-5.8613,-5.862,-5.8627,-5.8731,-5.8638,-5.8643,-5.8645,-5.8869,-5.8873,-5.8877,0,0,0,0,0,0,-5.8463,-5.8476,-5.8579,-5.8529,-5.8541,-5.8545,-5.8576,-5.8575,-5.8593,-5.8601,-5.86,-5.8583,-5.8611,-5.862,-5.8688,-5.8732,-5.8645,-5.8649,-5.8865,-5.887,-5.8875,-5.8942,0,0,0,0,0,0,-5.8459,-5.8475,-5.8509,-5.853,-5.8544,-5.8639,-5.8579,-5.8578,-5.8602,-5.8596,-5.8617,-5.8618,-5.861,-5.8681,-5.8692,-5.8737,-5.8653,-5.8861,-5.8868,-5.8873,-5.8936,-5.8948,-5.8959,0,0,0,0,0,-5.8454,-5.8525,-5.8511,-5.8524,-5.8587,-5.8642,-5.865,-5.864,-5.8605,-5.8639,-5.8645,-5.8617,-5.8727,-5.8688,-5.8701,-5.8748,-5.8858,-5.8866,-5.8873,-5.893,-5.8946,-5.8959,0,0,0,0,0,0,-5.8508,-5.8528,-5.8512,-5.8592,-5.8616,-5.8634,-5.8676,-5.8657,-5.8689,-5.8682,-5.8668,-5.8673,-5.8744,-5.8753,-5.871,-5.8835,-5.8787,-5.8797,-5.8826,-5.8841,-5.8853,-5.8847,-5.8657,0,0,0,0,0,-5.853,-5.8574,-5.8589,-5.8658,-5.8671,-5.8672,-5.8695,-5.8686,-5.8709,-5.8719,-5.8729,-5.8752,-5.8791,-5.8817,-5.8854,-5.8938,-5.8941,-5.8977,-5.8989,-5.8999,-5.9007,-5.9051,-5.9066,-5.8901,-5.8901,-5.89,0,0,-5.8574,-5.859,-5.8619,-5.8669,-5.8686,-5.8732,-5.868,-5.873,-5.8763,-5.8726,-5.879,-5.8799,-5.8823,-5.8899,-5.8933,-5.8909,-5.9054,-5.9008,-5.9016,-5.9018,-5.906,-5.9076,-5.909,-5.8906,-5.8905,-5.8904,0,0,-5.8677,-5.8695,-5.8754,-5.8773,-5.8801,-5.8801,-5.8816,-5.8837,-5.8841,-5.8906,-5.8879,-5.8918,-5.8987,-5.9005,-5.9023,-5.9137,-5.9112,-5.915,-5.921,-5.9254,-5.9267,-5.9278,-5.9317,-5.9331,-5.9158,-5.9158,-5.9158,0,-5.8728,-5.8796,-5.8787,-5.8839,-5.8862,-5.8832,-5.8892,-5.891,-5.8948,-5.8964,-5.8937,-5.9023,-5.9038,-5.9117,-5.9145,-5.9162,-5.9177,-5.9145,-5.9266,-5.9277,-5.9288,-5.9324,-5.9339,-5.9162,-5.9162,-5.9161,-5.9161,0,-5.8856,-5.8904,-5.8949,-5.8987,-5.9015,-5.9071,-5.907,-5.9099,-5.9088,-5.9092,-5.9158,-5.9175,-5.9214,-5.9234,-5.9223,-5.9312,-5.9296,-5.9268,-5.9218,-5.9308,-5.9342,-5.9356,-5.9168,-5.9167,-5.9166,-5.9165,0,0,-5.8991,-5.9026,-5.9042,-5.9059,-5.9089,-5.9125,-5.918,-5.922,-5.9245,-5.9273,-5.9317,-5.9377,-5.9352,-5.9373,-5.9365,-5.9403,-5.949,-5.937,-5.9371,-5.939,-5.9587,-5.9606,-5.9622,-5.9476,-5.9478,-5.9481,-5.9585,0,-5.9093,-5.9189,-5.9183,-5.9272,-5.9316,-5.929,-5.9338,-5.9361,-5.9366,-5.9403,-5.9409,-5.9451,-5.9415,-5.9428,-5.9465,-5.9471,-5.9529,-5.9464,-5.9515,-5.9517,-5.9506,-5.964,-5.966,-5.9757,-5.9598,-5.96,-5.9602,0,-5.9224,-5.9258,-5.9352,-5.9376,-5.9394,-5.9437,-5.9473,-5.951,-5.9535,-5.9536,-5.9562,-5.9547,-5.9602,-5.9554,-5.9628,-5.9584,-5.9605,-5.9612,-5.9615,-5.9617,-5.9562,-5.9643,-5.9788,-5.9802,-5.9623,-5.9621,-5.962,0,-5.9311,-5.938,-5.9445,-5.9461,-5.949,-5.9521,-5.9535,-5.9558,-5.9582,-5.9615,-5.963,-5.9669,-5.9689,-5.9718,-5.9714,-5.968,-5.9789,-5.9741,-5.979,-5.979,-5.9811,-5.9809,-5.9959,-5.983,-5.983,-5.983,-5.9829,0,-5.9424,-5.9481,-5.9484,-5.9524,-5.9588,-5.9582,-5.9645,-5.9655,-5.9676,-5.9717,-5.9698,-5.9736,-5.973,-5.9769,-5.9766,-5.9827,-5.9837,-5.9838,-5.9836,-5.9838,-5.9838,-5.9849,-5.9841,-5.9833,-5.9833,-5.9832,-5.9831,0,-5.9529,-5.9533,-5.9602,-5.9626,-5.9633,-5.9679,-5.9699,-5.9736,-5.9741,-5.9793,-5.9804,-5.9812,-5.9856,-5.9856,-5.9907,-5.9905,-5.9979,-5.9971,-5.997,-5.9968,-6.0015,-6.001,-6.0175,-6.0196,-6.0056,-6.0058,-6.0059,0,-5.9599,-5.9643,-5.9672,-5.9699,-5.9715,-5.9758,-5.9783,-5.978,-5.9807,-5.9841,-5.9874,-5.9917,-5.995,-6.0022,-6.0031,-6.007,-6.0061,-6.0116,-6.0066,-6.0067,-6.0059,-6.0055,-6.0058,-6.0125,-6.0126,-6.0127,-6.0129,0,-5.9723,-5.9723,-5.9762,-5.9801,-5.9833,-5.9864,-5.9892,-5.9915,-5.9914,-5.9946,-5.9992,-6.0018,-6.0071,-6.0113,-6.0151,-6.0163,-6.0146,-6.0145,-6.0158,-6.0158,-6.0155,-6.0155,-5.9994,-6.014,-6.0139,-6.0138,-6.0137,-6.0137,-5.9811,-5.9849,-5.9875,-5.9919,-5.994,-5.9968,-6.0004,-6.0015,-6.0053,-6.0096,-6.0092,-6.0142,-6.0168,-6.0217,-6.0233,-6.0272,-6.0253,-6.0272,-6.0276,-6.028,-6.0284,-6.0152,-6.0279,-6.0279,-6.0279,-6.0278,-6.0278,0,-5.9931,-5.9948,-5.9988,-6.0029,-6.0064,-6.0047,-6.0078,-6.0107,-6.0152,-6.0178,-6.0212,-6.0265,-6.0306,-6.032,-6.036,-6.0388,-6.0381,-6.0399,-6.0395,-6.0398,-6.03,-6.0284,-6.0404,-6.0404,-6.0404,-6.0404,-6.0404,-6.0404,-5.9998,-6.0061,-6.0065,-6.0138,-6.0154,-6.0204,-6.0223,-6.0248,-6.0269,-6.0329,-6.0364,-6.0373,-6.0394,-6.0436,-6.0473,-6.0476,-6.049,-6.0511,-6.051,-6.0418,-6.0405,-6.0393,-6.0377,-6.0515,-6.0515,-6.0604,-6.0605,-6.0605]},{"header":{"parameterUnit":"m.s-1","parameterCategory":1,"la1":30.2991,"la2":30.254,"lo1":-89.0895,"lo2":-89.0444,"dy":0.0017,"dx":0.0017,"nx":28,"ny":28,"refTime":"2025-03-28T21:00:00:Z","depth":0,"parameterNumber":3,"parameterNumberName":"V-component_of_WINDS"},"data":[0,0,0,0,0,0,0,0,0,0,0,0,0,0,0,0,0,0,0,0,0,0,0,0,0,0,0,0,0,0,0,0,0,0,0,0,0,0,0,0,0,0,0,0,0,0,0,0,0,0,0,0,0,0,0,0,0,0,4.0578,4.0579,0,4.0673,4.0674,4.0675,4.068,4.0679,4.0678,4.0677,4.0771,4.0774,4.0778,0,0,0,0,0,0,0,0,0,0,0,0,0,4.0399,4.0403,4.0578,4.0579,4.058,4.0673,4.0674,4.0676,4.068,4.0679,4.0677,4.0676,4.077,4.0774,4.0778,0,0,0,0,0,0,0,0,0,0,0,0,0,4.0484,4.0404,4.0578,4.0594,4.0596,4.0673,4.0674,4.0676,4.068,4.0679,4.0677,4.0675,4.0768,4.0773,4.0779,4.0845,0,0,4.0795,4.0797,0,0,0,0,0,0,0,0,4.0479,4.049,4.059,4.0593,4.0596,4.0663,4.0646,4.0733,4.0681,4.0648,4.0677,4.0675,4.0736,4.0744,4.0765,4.0849,4.0853,4.0795,4.0799,4.0801,4.0802,0,0,0,0,0,0,0,4.0473,4.0486,4.0616,4.0592,4.0595,4.0596,4.0606,4.0662,4.07,4.0651,4.0652,4.0663,4.0737,4.076,4.0768,4.0855,4.0795,4.08,4.0803,4.0805,4.1,4.1002,0,0,0,0,0,0,4.0465,4.0481,4.0613,4.0618,4.0532,4.0601,4.0612,4.0643,4.07,4.0707,4.0664,4.0663,4.0752,4.0761,4.0771,4.0854,4.0801,4.0806,4.0809,4.0999,4.1001,4.1003,0,0,0,0,0,0,4.0461,4.0476,4.0609,4.055,4.0567,4.0606,4.064,4.0646,4.0669,4.071,4.0716,4.0681,4.0751,4.0763,4.0827,4.0857,4.0808,4.0813,4.0996,4.0999,4.1002,4.1019,0,0,0,0,0,0,4.0456,4.0475,4.05,4.0551,4.057,4.0664,4.0642,4.0649,4.0678,4.0677,4.0727,4.0734,4.0751,4.0819,4.0833,4.0864,4.0817,4.0994,4.0998,4.1001,4.1016,4.1022,4.1028,0,0,0,0,0,4.0449,4.05,4.0501,4.0517,4.0603,4.0665,4.0677,4.0696,4.0681,4.0707,4.0734,4.0732,4.0852,4.0826,4.0841,4.0874,4.0992,4.0996,4.1001,4.1014,4.1021,4.1028,0,0,0,0,0,0,4.045,4.0507,4.0509,4.0578,4.0617,4.0666,4.0699,4.0703,4.0746,4.0743,4.0765,4.0776,4.084,4.0863,4.0833,4.0942,4.092,4.0928,4.0925,4.0932,4.0938,4.0931,4.0822,0,0,0,0,0,4.0458,4.0505,4.0552,4.0608,4.0628,4.066,4.0688,4.07,4.0741,4.0757,4.0789,4.0828,4.0875,4.0905,4.095,4.102,4.1032,4.105,4.1056,4.1061,4.1067,4.1108,4.1117,4.1018,4.1018,4.1018,0,0,4.0475,4.0512,4.054,4.0609,4.0641,4.0689,4.0674,4.0724,4.076,4.0764,4.0828,4.0852,4.0897,4.0966,4.0997,4.0987,4.1097,4.1066,4.107,4.1074,4.1114,4.1123,4.1131,4.1021,4.102,4.102,0,0,4.0532,4.0564,4.0616,4.0649,4.0698,4.072,4.0732,4.0782,4.0799,4.0863,4.0868,4.0911,4.099,4.1023,4.105,4.1123,4.1124,4.1137,4.1167,4.1207,4.1215,4.1222,4.1249,4.1259,4.1143,4.1143,4.1143,0,4.0547,4.062,4.0641,4.0693,4.0724,4.0732,4.0785,4.0816,4.0876,4.0898,4.0886,4.0988,4.1019,4.1096,4.1114,4.1135,4.1151,4.1131,4.1212,4.1219,4.1226,4.1253,4.1263,4.1144,4.1144,4.1144,4.1144,0,4.0637,4.0687,4.0723,4.0784,4.0819,4.0871,4.09,4.0933,4.0943,4.0966,4.1032,4.107,4.1125,4.1144,4.1152,4.1223,4.1215,4.1208,4.1186,4.1237,4.1262,4.1272,4.1146,4.1146,4.1145,4.1145,0,0,4.0694,4.0769,4.0782,4.0811,4.0867,4.0906,4.0959,4.1014,4.1043,4.1085,4.113,4.1199,4.1194,4.1224,4.1237,4.1272,4.133,4.1261,4.1262,4.1273,4.1412,4.1418,4.1429,4.1331,4.1333,4.1335,4.1408,0,4.0758,4.0853,4.0876,4.0957,4.1006,4.1016,4.1062,4.1102,4.1126,4.117,4.1196,4.1245,4.1233,4.1252,4.1287,4.1315,4.1358,4.131,4.1374,4.1376,4.1363,4.1442,4.1448,4.1515,4.1418,4.142,4.1421,0,4.0844,4.0891,4.0978,4.1031,4.1052,4.1093,4.1147,4.1189,4.1235,4.125,4.1286,4.1296,4.1352,4.1328,4.1407,4.1374,4.1401,4.142,4.1423,4.1429,4.1402,4.1452,4.1537,4.1548,4.1436,4.1435,4.1434,0,4.0879,4.0964,4.1028,4.1052,4.1115,4.1144,4.1171,4.1216,4.1248,4.1295,4.1316,4.1368,4.1396,4.1436,4.1461,4.1441,4.1538,4.1515,4.1552,4.1552,4.1572,4.1571,4.1664,4.1589,4.1589,4.1588,4.1588,0,4.0948,4.1001,4.1045,4.1084,4.1145,4.117,4.123,4.1257,4.1297,4.1342,4.1353,4.1395,4.1425,4.1471,4.149,4.1553,4.1566,4.158,4.1584,4.1579,4.1578,4.1597,4.1594,4.1591,4.1591,4.159,4.159,0,4.0997,4.1028,4.1099,4.1154,4.1169,4.1211,4.1258,4.1297,4.1322,4.1379,4.1394,4.1433,4.1489,4.1517,4.1585,4.1599,4.167,4.1671,4.1655,4.1657,4.1693,4.169,4.1803,4.182,4.1733,4.1733,4.1734,0,4.1039,4.1081,4.1141,4.1173,4.1202,4.1252,4.1286,4.1314,4.1349,4.1406,4.1438,4.1495,4.1541,4.1629,4.1664,4.1717,4.172,4.1756,4.1728,4.1722,4.1722,4.172,4.1725,4.1761,4.1762,4.1762,4.1763,0,4.1111,4.1126,4.1175,4.123,4.1271,4.1315,4.1359,4.1385,4.1419,4.1458,4.1516,4.1552,4.1624,4.168,4.1736,4.1764,4.177,4.1772,4.1784,4.1779,4.1769,4.1776,4.167,4.1769,4.1768,4.1768,4.1768,4.1767,4.1159,4.1198,4.1247,4.1302,4.1339,4.138,4.1421,4.1452,4.1501,4.1562,4.1575,4.1637,4.1684,4.1761,4.1791,4.1839,4.1831,4.1848,4.1852,4.1856,4.1859,4.1761,4.1849,4.1849,4.1849,4.1849,4.1849,0,4.1234,4.1267,4.1317,4.138,4.1423,4.1426,4.1476,4.1512,4.1567,4.1611,4.1657,4.1725,4.178,4.182,4.1876,4.1908,4.1912,4.1922,4.192,4.1927,4.1861,4.1846,4.1918,4.1918,4.1918,4.1918,4.1918,4.1918,4.1277,4.1344,4.1364,4.1449,4.1482,4.1543,4.1572,4.161,4.1646,4.1721,4.1768,4.1794,4.1837,4.1897,4.1949,4.1959,4.198,4.199,4.2,4.1938,4.1931,4.1924,4.191,4.1994,4.1994,4.2062,4.2062,4.2063]}]]